User: anonymous   Login
Location: *
(43.2048°N, 0.1612°E)
Time: 03:55:37
(UTC+00:00)
Language:

Cosmos 1536 - Orbit

View from above orbital plane
View from above orbital plane
View from above satellite
View from above satellite

Ground track
Ground track

The orbit data is extracted from the following two-line orbital elements,

1 14699U 84013A   24062.63652005  .00003534  00000-0  20655-3 0  9992
2 14699  82.5479 113.2243 0017705 331.9087  28.1186 15.11459091181982
Epoch (UTC): 02 March 2024 15:16:35
Eccentricity: 0.0017705
inclination: 82.5479°
perigee height: 519 km
apogee height: 544 km
right ascension of ascending node: 113.2243°
argument of perigee: 331.9087°
revolutions per day: 15.11459091
mean anomaly at epoch: 28.1186°
orbit number at epoch: 18198

The dashed part of the orbit path shows where the satellite is in the earth's shadow,  

DLR